Voltar ao catálogo

FLOCK 4G 26

AtivoCiênciaSSO
NORAD 62633·PAYLOAD·🇺🇸 United States

Lançado Jan 14, 2025 de Vandenberg Space Force Base

Loading…

Próximas Passagens (próximas 24 horas)

TLE

AtualizadoSource: CelesTrak SupGP

Época: Sep 14, 2026, 14:44 UTC

1 62633C 25009AA  26257.61417824  .00010759  00000+0  35819-3 0  2578
2 62633  97.3969 339.2962 0002845  13.5394 221.1889 15.31180800    12

Acompanhe FLOCK 4G 26 em tempo real com AllMySat

Download on the App Store